Location: Epalinges
(46.5518°N, 6.6683°E)
Time: 17:19:53
(UTC+00:00)

YAOGAN 11 - Pass Details

Date: 20 June 2021
Orbit: 613 x 668 km, 98.3° (Epoch: 03 August)

Event Time Altitude Azimuth Distance (km) Brightness Sun altitude
Exits shadow 00:35:35 37° 167° (SSE) 1,003 4.7 -18.7°
Maximum altitude 00:37:20 87° 253° (WSW) 654 4.1 -18.6°
Drops below altitude 10° 00:41:52 10° 346° (NNW) 2,073 7.6 -18.4°
Sets 00:44:07 0° 346° (NNW) 2,997 8.6 -18.3°
